Hagerstown, MD

4:06 PM EST on December 09, 2019 (GMT -0500)
Hagerstown Regional-Henson

Weather History for KHGR - November, 2019

Change the Weather History Date:

Tuesday, November 19, 2019

  Actual Average Record
Temperature  
Mean Temperature 43 °F 44 °F  
Max Temperature 53 °F 52 °F 68 °F (2016)
Min Temperature 33 °F 36 °F 18 °F (2014)
Degree Days  
Heating Degree Days 22 21  
Month to date heating degree days 452 342  
Since 1 July heating degree days 671 744  
Cooling Degree Days 0 0  
Month to date cooling degree days 0 0  
Year to date cooling degree days 1473 969  
Moisture  
Dew Point 34 °F    
Average Humidity 75    
Maximum Humidity 100    
Minimum Humidity 50    
Precipitation  
Precipitation 0.00 in 0.10 in 1.17 in (2003)
Month to date precipitation 0.34 1.91  
Year to date precipitation 34.44 35.09  
Sea Level Pressure  
Sea Level Pressure 29.83 in    
Wind  
Wind Speed 4 mph (SSE)    
Max Wind Speed 8 mph    
Max Gust Speed 12 mph    
Visibility 4 miles    
Events Fog    
T = Trace of Precipitation, MM = Missing Value Source: NWS Daily Summary

Daily Weather History Graph

Daily Weather History Graph

Search for Another Location

Airport or City:

Astronomy

Nov. 19, 2019 Rise Set
Actual Time 6:59 AM EST 4:52 PM EST
Civil Twilight 6:30 AM EST 5:21 PM EST
Nautical Twilight 5:57 AM EST 5:54 PM EST
Astronomical Twilight 5:25 AM EST 6:26 PM EST
Moon 11:45 PM EST (11/19) 1:09 PM EST (11/19)
Length of Visible Light 10h 51m
Length of Day
9h 52m
Waning Gibbous, 52% of the Moon is Illuminated
Nov 19
Waning Gibbous
Nov 19
Last Quarter
Nov 26
New
Dec 4
First Quarter
Dec 12
Full

Hourly Weather History & Observations

Time (EST) Temp. Windchill Dew Point Humidity Pressure Visibility Wind Dir Wind Speed Gust Speed Precip Events Conditions
12:46 AM 37.9 °F - 35.1 °F 89% 29.74 in 5.0 mi Calm Calm - N/A   Overcast
12:53 AM 37.9 °F 35.5 °F 35.1 °F 89% 29.79 in 5.0 mi SSE 3.5 mph - N/A   Mostly Cloudy
1:53 AM 36.0 °F 33.3 °F 33.1 °F 89% 29.79 in 4.0 mi South 3.5 mph - N/A   Scattered Clouds
2:53 AM 37.9 °F 34.4 °F 35.1 °F 89% 29.80 in 5.0 mi South 4.6 mph - N/A   Overcast
3:53 AM 37.9 °F 34.4 °F 35.1 °F 89% 29.79 in 5.0 mi SE 4.6 mph - N/A   Overcast
4:53 AM 36.0 °F 32.1 °F 34.0 °F 93% 29.80 in 4.0 mi SSE 4.6 mph - N/A   Clear
5:15 AM 36.0 °F 32.1 °F 34.0 °F 93% 29.76 in 2.5 mi SE 4.6 mph - N/A   Partly Cloudy
5:24 AM 36.0 °F 33.3 °F 33.1 °F 89% 29.76 in 3.0 mi SE 3.5 mph - N/A   Clear
5:40 AM 34.0 °F - 32.0 °F 92% 29.76 in 1.2 mi Calm Calm - N/A   Clear
5:42 AM 33.1 °F - 30.9 °F 92% 29.76 in 0.5 mi Calm Calm - N/A Fog Fog
5:53 AM 34.0 °F 31.0 °F 32.0 °F 92% 29.81 in 0.2 mi ESE 3.5 mph - N/A Fog Fog
6:21 AM 33.1 °F 28.7 °F 32.0 °F 96% 29.77 in 0.2 mi SSE 4.6 mph - N/A Fog Fog
6:28 AM 33.1 °F 28.7 °F 30.9 °F 92% 29.78 in 0.2 mi SSE 4.6 mph - N/A Fog Fog
6:35 AM 33.1 °F 28.7 °F 30.9 °F 92% 29.78 in 0.5 mi SSE 4.6 mph - N/A Fog Fog
6:44 AM 33.1 °F 27.7 °F 30.9 °F 92% 29.79 in 1.2 mi South 5.8 mph - N/A   Scattered Clouds
6:53 AM 34.0 °F 28.8 °F 32.0 °F 92% 29.84 in 1.8 mi South 5.8 mph - N/A   Scattered Clouds
6:59 AM 35.1 °F 29.3 °F 33.1 °F 92% 29.79 in 0.8 mi South 6.9 mph - N/A   Mist
7:08 AM 35.1 °F 30.1 °F 34.0 °F 96% 29.80 in 0.2 mi South 5.8 mph - N/A Fog Fog
7:18 AM 35.1 °F 31.0 °F 33.1 °F 92% 29.80 in 0.2 mi SSE 4.6 mph - N/A Fog Fog
7:53 AM 34.0 °F - 33.1 °F 96% 29.86 in 0.2 mi Calm Calm - N/A Fog Fog
8:53 AM 34.0 °F 29.8 °F 33.1 °F 96% 29.86 in 0.2 mi East 4.6 mph - N/A Fog Fog
9:35 AM 37.0 °F - 36.0 °F 96% 29.83 in 0.5 mi Calm Calm - N/A Fog Fog
9:43 AM 37.9 °F 35.5 °F 37.0 °F 97% 29.83 in 2.0 mi SE 3.5 mph - N/A   Mostly Cloudy
9:49 AM 37.4 °F 34.9 °F 35.6 °F 93% 29.83 in 3.0 mi SE 3.5 mph - N/A   Scattered Clouds
9:53 AM 39.0 °F - 36.0 °F 89% 29.88 in 3.0 mi Calm Calm - N/A   Scattered Clouds
10:53 AM 46.0 °F - 36.0 °F 68% 29.86 in 9.0 mi Calm Calm - N/A   Clear
11:53 AM 48.9 °F - 35.1 °F 59% 29.84 in - North - - N/A   Clear
12:53 PM 51.1 °F - 34.0 °F 52% 29.83 in 10.0 mi Variable 6.9 mph - N/A   Clear
1:53 PM 52.0 °F - 34.0 °F 50% 29.83 in 10.0 mi Variable 3.5 mph - N/A   Clear
2:53 PM 52.0 °F - 33.1 °F 49% 29.83 in 10.0 mi WSW 4.6 mph - N/A   Clear
3:53 PM 52.0 °F - 36.0 °F 54% 29.84 in 10.0 mi South 4.6 mph - N/A   Mostly Cloudy
4:53 PM 52.0 °F - 35.1 °F 53% 29.86 in 10.0 mi Calm Calm - N/A   Overcast
5:53 PM 51.1 °F - 36.0 °F 56% 29.87 in 10.0 mi Calm Calm - N/A   Overcast
6:53 PM 48.9 °F - 37.0 °F 64% 29.88 in 10.0 mi NNW 3.5 mph - N/A   Overcast
7:53 PM 48.9 °F - 34.0 °F 56% 29.89 in 9.0 mi NW 5.8 mph - N/A   Overcast
8:53 PM 48.0 °F - 34.0 °F 58% 29.91 in 9.0 mi NW 5.8 mph - N/A   Overcast
9:53 PM 48.0 °F - 34.0 °F 58% 29.91 in 8.0 mi NW 5.8 mph - N/A   Overcast
10:53 PM 46.9 °F - 34.0 °F 61% 29.92 in 8.0 mi NW 4.6 mph - N/A   Overcast
11:53 PM 46.9 °F - 34.0 °F 61% 29.92 in 8.0 mi NNW 6.9 mph - N/A   Overcast